Погода в Новой Погощи

Россия / Брянская область     52°20′08″N   33°53′54″E
темп.,
°C
ветер,
м/с
пор.,
м/с
влажн.,
%
обл.,
%
осадки,
мм/ч
давл.,
гПа
погр.,
м
31 июля, сб
сб3100:00+18зюз33730 0.0 100944
03:00+17з33754 0.0 100928
06:00+19юз3665100 0.0 1009120
09:00+22зюз496595 0.0 1009464
12:00+27зюз58446 0.0 10092205
15:00+29з68385 0.0 10092471
18:00+28зсз47465 0.0 1009633
21:00+21св22625 0.0 101013
1 августа, вс
вс100:00+20юв346366 0.0 101151
03:00+20ююв376973 0.0 1011127
06:00+19ю34689 0.0 101153
09:00+26ююз46535 0.0 1011421
12:00+30юз573982 0.0 10112329
15:00+32юз463221 0.0 10102893
18:00+30юз234398 0.0 1008514
21:00+26зсз114784 0.0 100917
2 августа, пн
пн200:00+21сз367776 0.0 1010111
03:00+20в2284100 1.4 100931
06:00+19ююв228623 1.3 100938
09:00+23ю477175 1.3 1007356
12:00+28юз6956100 0.0 10071185
15:00+31ююз7941100 0.0 10061868
18:00+30ююз584936 0.0 10041299
21:00+19зсз81491100 3.3 1006552
3 августа, вт
вт300:00+18ююз4895100 0.1 1006313
03:00+16зюз4109599 0.1 1007342
06:00+16з6109471 0.1 1008584
09:00+17зсз698343 0.1 1010739
12:00+20сз686429 0.2 10121005
15:00+23зсз56555 0.5 10121569
18:00+22з465399 0.1 10121619
21:00+16з34765 0.1 101454
4 августа, ср
ср400:00+14з339111 0.0 101548
03:00+14з34920 0.0 101660
06:00+13з23900 0.0 101750
09:00+19з34630 0.0 1017485
12:00+23з3446100 0.0 10171906
15:00+24зсз334199 0.0 10172104
18:00+24сз214436 0.0 10161426
21:00+19всв3366100 0.0 101753